Home   Weather   Johor Bahru   Past weeks

Flag for Malaysia Past Weather in Johor Bahru, Malaysia — Yesterday and Last 2 Weeks

84 °F

Thundershowers. Scattered clouds.

Feels Like: 94 °F
Forecast: 76 / 89 °F
Wind: 6 mph from Southeast

Location: Singapore / Paya Lebar

Current Time: Oct 25, 2016 at 6:17:16 PM

Latest Report: Oct 25, 2016 at 5:00 PM

Visibility: 6 mi

Pressure: 29.71 "Hg

Humidity: 79%

Dew Point: 77 °F

Location of Johor BahruLocation

Past Weather in Johor Bahru — Graph


Johor Bahru Temperature Yesterday

Maximum temperature yesterday: 88 °F (at 3:00 PM)
Minimum temperature yesterday: 77 °F (at 10:00 AM)
Average temperature yesterday: 82 °F

High & Low Weather Summary for the Past Weeks

High95 °F (Oct 11, 1:00 PM)94% (Oct 15, 7:00 AM)29.86 "Hg (Oct 15, 7:00 AM)
Low75 °F (Oct 19, 7:00 AM)47% (Oct 11, 1:00 PM)29.68 "Hg (Oct 11, 4:00 PM)
Average86 °F71%29.76 "Hg
* Reported Oct 10 5:00 PM — Oct 25 5:00 PM, Johor Bahru, Weather by CustomWeather, © 2016

Note: Actual official high and low records may vary slightly from our data, if they occured in-between our weather recording intervals... More about our weather records


Johor Bahru Weather History for the Previous 24 Hours

Scroll right to see more
Time TempWeatherWind HumidityBarometerVisibility
5:00 PM
Tue, Oct 25
84 °FThundershowers. Scattered clouds.6 mph79%29.71 "Hg6 mi
4:00 PM86 °FPartly sunny.6 mph70%29.71 "HgN/A
3:00 PM84 °FScattered clouds.8 mph70%29.71 "HgN/A
2:00 PM84 °FPartly sunny.7 mph70%29.74 "HgN/A
1:00 PM90 °FThundershowers. Broken clouds.8 mph59%29.77 "Hg6 mi
12:00 PM90 °FScattered showers. Broken clouds.3 mph67%29.80 "HgN/A
11:00 AM90 °FPartly sunny.3 mph67%29.80 "HgN/A
10:00 AM86 °FPartly sunny.3 mph75%29.80 "HgN/A
9:00 AM82 °FPartly sunny.3 mph84%29.80 "Hg6 mi
8:00 AM81 °FPartly sunny.2 mph89%29.80 "Hg4 mi
7:00 AM79 °FPartly sunny.2 mph94%29.77 "Hg4 mi
6:00 AM79 °FPassing clouds.2 mph94%29.74 "Hg4 mi
5:00 AM79 °FPassing clouds.2 mph94%29.74 "Hg4 mi
11:00 PM
Mon, Oct 24
81 °FPassing clouds.No wind89%29.80 "Hg5 mi
10:00 PM79 °FPassing clouds.No wind94%29.80 "Hg6 mi
9:00 PM79 °FPassing clouds.No wind94%29.77 "Hg6 mi
8:00 PM79 °FLight rain. Overcast.3 mph94%29.77 "Hg6 mi
7:00 PM79 °FLight rain. Passing clouds.7 mph89%29.74 "HgN/A
6:00 PM86 °FLight rain. Partly sunny.6 mph75%29.74 "HgN/A
Weather by CustomWeather, © 2016

See weather overviewHow to use our weather pages